KD8PH Weather Reports


Display with metric or nautical units.
time (UTC)temp
F
wind
direction
speed
MPH
gust
MPH
rain 1hr
in
rain 24hr
in
rain mn
in
humidity
%
barometer
mb
20260906192022 92 0.0 0.0 0.00 0.03 0.00 61 1009.4
20260906191022 91 0.0 0.0 0.00 0.03 0.00 62 1009.6
20260906190023 91 0.0 0.0 0.00 0.03 0.00 62 1009.7
20260906185023 91 0.0 0.0 0.00 0.03 0.00 60 1009.9
20260906184022 90 0.0 0.0 0.00 0.03 0.00 63 1010.1
20260906183023 90 0.0 0.0 0.00 0.03 0.00 62 1010.2
20260906182023 90 0.0 0.0 0.00 0.03 0.00 62 1010.4
20260906181022 90 0.0 0.0 0.00 0.03 0.00 64 1010.5
20260906180023 90 0.0 0.0 0.00 0.03 0.00 63 1010.5
20260906175022 89 0.0 0.0 0.00 0.03 0.00 65 1010.8
20260906174023 89 0.0 0.0 0.00 0.03 0.00 65 1010.8
20260906173023 89 0.0 0.0 0.00 0.03 0.00 65 1010.9
20260906172022 88 0.0 0.0 0.00 0.03 0.00 64 1011.0
20260906171022 88 0.0 0.0 0.00 0.03 0.00 64 1011.1
20260906170023 88 0.0 0.0 0.00 0.03 0.00 66 1011.1
20260906165022 87 0.0 0.0 0.00 0.03 0.00 66 1011.3
20260906164022 87 0.0 0.0 0.00 0.03 0.00 67 1011.3
20260906163022 86 0.0 0.0 0.00 0.03 0.00 69 1011.4
20260906162022 86 0.0 0.0 0.00 0.03 0.00 68 1011.4
20260906161026 85 0.0 0.0 0.00 0.03 0.00 69 1011.5
20260906160022 85 0.0 0.0 0.00 0.03 0.00 69 1011.6
20260906155022 84 0.0 0.0 0.00 0.03 0.00 69 1011.7
20260906154022 83 0.0 0.0 0.00 0.03 0.00 70 1011.6
20260906153022 83 0.0 0.0 0.00 0.03 0.00 72 1011.6
20260906152026 83 0.0 0.0 0.00 0.03 0.00 73 1011.6
20260906151022 83 0.0 0.0 0.00 0.03 0.00 73 1011.6
20260906150022 82 0.0 0.0 0.00 0.03 0.00 74 1011.5
20260906145022 81 0.0 0.0 0.00 0.03 0.00 77 1011.2
20260906144022 81 0.0 0.0 0.00 0.03 0.00 77 1011.2
20260906143022 81 0.0 0.0 0.00 0.03 0.00 77 1011.3
20260906142022 81 0.0 0.0 0.00 0.03 0.00 76 1011.4
20260906141022 81 0.0 0.0 0.00 0.03 0.00 77 1011.5
20260906140023 81 0.0 0.0 0.00 0.03 0.00 77 1011.5
20260906135022 81 0.0 0.0 0.00 0.03 0.00 75 1011.6
20260906134023 81 0.0 0.0 0.00 0.03 0.00 75 1011.6
20260906133022 81 0.0 0.0 0.00 0.03 0.00 75 1011.8
20260906132022 80 0.0 0.0 0.00 0.03 0.00 76 1011.7
20260906131022 80 0.0 0.0 0.00 0.03 0.00 77 1011.7
20260906130022 80 0.0 0.0 0.00 0.03 0.00 77 1011.8
20260906125022 78 0.0 0.0 0.00 0.03 0.00 80 1011.9
20260906124022 77 0.0 0.0 0.00 0.03 0.00 82 1011.9
20260906123022 76 0.0 0.0 0.00 0.03 0.00 82 1011.7
20260906122022 76 0.0 0.0 0.00 0.03 0.00 83 1011.7
20260906121022 76 0.0 0.0 0.00 0.03 0.00 84 1011.8
20260906120021 76 0.0 0.0 0.00 0.03 0.00 84 1011.9
20260906115022 76 0.0 0.0 0.00 0.03 0.00 84 1011.7
20260906114022 76 0.0 0.0 0.00 0.03 0.00 85 1011.7
20260906113022 76 0.0 0.0 0.00 0.03 0.00 84 1011.7
20260906112022 77 0.0 0.0 0.00 0.03 0.00 84 1011.6
20260906111022 77 0.0 0.0 0.00 0.03 0.00 83 1011.3
20260906110022 77 0.0 0.0 0.00 0.03 0.00 83 1011.2
20260906105022 78 0.0 0.0 0.00 0.03 0.00 83 1011.1
20260906104021 78 0.0 0.0 0.00 0.03 0.00 84 1011.2
20260906103022 78 0.0 0.0 0.00 0.03 0.00 85 1011.1
20260906102021 77 0.0 0.0 0.00 0.03 0.00 83 1011.1
20260906101021 77 0.0 0.0 0.00 0.03 0.00 82 1011.1
20260906100022 77 0.0 0.0 0.00 0.03 0.00 81 1010.8
20260906095022 78 0.0 0.0 0.00 0.03 0.00 80 1010.8
20260906094021 79 0.0 0.0 0.00 0.03 0.00 80 1010.5
20260906093023 79 0.0 0.0 0.00 0.03 0.00 79 1010.4
20260906092021 80 0.0 0.0 0.00 0.03 0.00 79 1010.2
20260906091029 80 0.0 0.0 0.00 0.03 0.00 78 1010.2
20260906090021 79 0.0 0.0 0.00 0.03 0.00 78 1010.6
20260906085021 79 0.0 0.0 0.00 0.03 0.00 77 1011.1
20260906084021 79 0.0 0.0 0.00 0.03 0.00 79 1011.2
20260906083021 78 0.0 0.0 0.00 0.03 0.00 79 1011.5
20260906082021 78 0.0 0.0 0.00 0.03 0.00 81 1011.6
20260906081022 78 0.0 0.0 0.00 0.03 0.00 82 1011.3
20260906080021 78 0.0 0.0 0.00 0.03 0.00 83 1011.5
20260906075021 78 0.0 0.0 0.00 0.03 0.00 86 1011.3
20260906074022 78 0.0 0.0 0.00 0.03 0.00 86 1011.3
20260906073021 78 0.0 0.0 0.00 0.03 0.00 86 1011.3
20260906072021 78 0.0 0.0 0.00 0.03 0.00 87 1011.3
20260906071021 78 0.0 0.0 0.00 0.03 0.00 88 1011.4
20260906070021 78 0.0 0.0 0.00 0.03 0.00 88 1011.4
20260906065021 78 0.0 0.0 0.00 0.03 0.00 89 1011.3
20260906064021 78 0.0 0.0 0.00 0.03 0.00 88 1011.1
20260906063021 78 0.0 0.0 0.00 0.03 0.00 88 1011.0
20260906062021 78 0.0 0.0 0.00 0.03 0.00 88 1010.9
20260906061021 79 0.0 0.0 0.00 0.03 0.00 88 1011.1
20260906060021 78 0.0 0.0 0.00 0.03 0.00 88 1011.0
20260906055021 78 0.0 0.0 0.00 0.03 0.00 88 1011.0
20260906054021 79 0.0 0.0 0.00 0.03 0.00 87 1011.0
20260906053023 79 0.0 0.0 0.00 0.03 0.00 87 1010.9
20260906052023 79 0.0 0.0 0.00 0.03 0.00 88 1011.0
20260906051023 79 0.0 0.0 0.00 0.03 0.00 87 1010.9
20260906050023 79 0.0 0.0 0.00 0.03 0.03 87 1011.1
20260906045023 79 0.0 0.0 0.00 0.03 0.03 86 1011.2
20260906044023 80 0.0 0.0 0.00 0.03 0.03 85 1011.4
20260906043023 81 0.0 0.0 0.00 0.03 0.03 85 1011.2
20260906042022 80 0.0 0.0 0.00 0.03 0.03 86 1011.2
20260906041027 80 0.0 0.0 0.00 0.03 0.03 85 1011.3
20260906040022 80 0.0 0.0 0.00 0.03 0.03 85 1011.2
20260906035022 80 0.0 0.0 0.00 0.03 0.03 85 1011.3
20260906034023 80 0.0 0.0 0.00 0.03 0.03 85 1011.2
20260906033022 80 0.0 0.0 0.00 0.03 0.03 85 1011.1
20260906032022 80 0.0 0.0 0.00 0.03 0.03 84 1011.0
20260906031022 80 0.0 0.0 0.00 0.03 0.03 84 1011.1
20260906030023 81 0.0 0.0 0.00 0.03 0.03 81 1011.1
20260906025023 81 0.0 0.0 0.00 0.03 0.03 82 1011.0
20260906024022 82 0.0 0.0 0.00 0.03 0.03 80 1010.7
20260906023023 82 0.0 0.0 0.00 0.03 0.03 79 1010.8
20260906022022 81 0.0 0.0 0.00 0.03 0.03 81 1010.7
20260906021022 81 0.0 0.0 0.00 0.03 0.03 83 1010.6
20260906020022 81 0.0 0.0 0.00 0.03 0.03 83 1010.7
20260906015029 81 0.0 0.0 0.00 0.03 0.03 84 1010.8
20260906014022 81 0.0 0.0 0.00 0.03 0.03 84 1010.5
20260906013022 81 0.0 0.0 0.00 0.03 0.03 84 1010.4
20260906012028 81 0.0 0.0 0.00 0.03 0.03 84 1010.0
20260906011023 81 0.0 0.0 0.00 0.03 0.03 83 1009.8
20260906010022 81 0.0 0.0 0.00 0.03 0.03 82 1009.6
20260906005024 81 0.0 0.0 0.00 0.03 0.03 81 1009.4
20260906004022 81 0.0 0.0 0.00 0.03 0.03 81 1009.0
20260906003022 81 0.0 0.0 0.00 0.03 0.03 82 1009.1
20260906002022 82 0.0 0.0 0.00 0.03 0.03 83 1009.6
20260906001024 83 0.0 0.0 0.00 0.03 0.03 82 1009.5
20260906000022 82 0.0 0.0 0.00 0.03 0.03 77 1009.2
20260905235022 83 0.0 0.0 0.00 0.03 0.03 81 1009.4
20260905234022 84 0.0 0.0 0.00 0.03 0.03 78 1009.5
20260905233022 85 0.0 0.0 0.00 0.03 0.03 75 1009.5
20260905232022 85 0.0 0.0 0.00 0.03 0.03 69 1009.3
20260905231022 85 0.0 0.0 0.03 0.03 0.03 69 1009.3
20260905230022 85 0.0 0.0 0.03 0.03 0.03 69 1009.2
20260905225022 85 0.0 0.0 0.03 0.03 0.03 70 1009.2
20260905224022 85 0.0 0.0 0.03 0.03 0.03 66 1009.1
20260905223021 85 0.0 0.0 0.03 0.03 0.03 63 1009.1
20260905222021 87 23 3.0 15.0 0.03 0.03 0.03 52 1009.1
20260905221021 90 0.0 0.0 0.00 0.00 0.00 60 1009.5
20260905220024 92 0.0 0.0 0.00 0.00 0.00 57 1009.8
20260905215022 97 0.0 0.0 0.00 0.00 0.00 50 1009.6
20260905214022 97 0.0 0.0 0.00 0.00 0.00 52 1009.2
20260905213021 97 0.0 0.0 0.00 0.00 0.00 54 1009.3
20260905212029 97 0.0 0.0 0.00 0.00 0.00 55 1009.3
20260905211021 96 0.0 0.0 0.00 0.00 0.00 55 1009.3
20260905210022 96 0.0 0.0 0.00 0.00 0.00 54 1009.2
20260905205021 95 0.0 0.0 0.00 0.00 0.00 59 1009.2
20260905204021 95 0.0 0.0 0.00 0.00 0.00 58 1009.4
20260905203021 95 0.0 0.0 0.00 0.00 0.00 58 1009.5
20260905202022 95 0.0 0.0 0.00 0.00 0.00 56 1009.6
20260905201021 95 0.0 0.0 0.00 0.00 0.00 56 1010.0
20260905200022 94 0.0 0.0 0.00 0.00 0.00 57 1010.1
20260905195021 95 0.0 0.0 0.00 0.00 0.00 56 1010.3
20260905194021 95 0.0 0.0 0.00 0.00 0.00 56 1010.4
20260905193021 95 0.0 0.0 0.00 0.00 0.00 56 1010.4